Simultaneous Nadir Overpasses (SNOs) Predictions

Prediction of SNOs near US between AQUA and NPP Satellite Orbit:

Table of predicted SNOs near US for the next 10.0 days since TLE Epoch: 7/7/2017
Index Date (AQUA) Time (AQUA) AQUA Lat,Lon Date (NPP) Time (NPP) NPP Lat,Lon Distance(km) Time Diff (sec)
1 07/08/2017 19:06:07 49.97, -92.52 07/08/2017 19:00:54 49.64, -94.29 132.36 313
2 07/08/2017 20:45:00 49.96,-117.24 07/08/2017 20:42:22 49.53,-119.62 177.64 158
3 07/11/2017 10:11:51 26.69,-124.99 07/11/2017 10:05:22 26.28,-125.72 85.71 389
4 07/14/2017 07:18:31 49.89, -75.99 07/14/2017 07:19:53 50.29, -78.06 154.74 82
5 07/14/2017 08:57:24 49.90,-100.71 07/14/2017 09:01:21 50.40,-103.39 199.25 237
6 07/16/2017 18:16:39 49.96, -80.16 07/16/2017 18:10:08 49.72, -81.63 108.74 391
7 07/16/2017 19:55:32 49.96,-104.88 07/16/2017 19:51:36 49.61,-106.95 153.96 236
8 07/16/2017 21:30:43 36.72,-124.99 07/16/2017 21:29:15 36.23,-127.45 226.38 88




NCC Satellite Simultaneous Nadir Overpasses (SNOs) Prediction Service
